WESTFORD NEEDLES, 18615

Orbit data source: Space-Track

WESTFORD NEEDLES, 18615 is space debris in LEO originally from a launch on Thu, 09 May 1963 UTC launched from the Air Force Western Test Range (AFWTR). Debris objects in space refer to the collection of defunct objects orbiting the Earth. Examples of debris include non-operational satellites, rocket bodies, and fragments generated from explosions, collisions, or faulty payload assembly.

Loading next visibility...
Identifier
18615, 1963-014DK
Orbit
LEO
Country
Flag of USUS
Related business
Manufacturer
Unknown
Mission
Spacecraft
Bus & Motor
Unknown
Mass
Unknown
Launch date (UTC)
1963-05-09 (63 years ago)
Launch vehicle
Unknown
Launch site
Air Force Western Test Range (AFWTR)
Object type
Payload
Rocket body
Debris
Shape & HBR
Unknown shape, 0.2 m
Radar Cross Section
Small (<0.1 m²)

Expand to show TLE details & history
Last TLE update: 4 days ago

TLE from 4 days ago
0 WESTFORD NEEDLES
1 18615U 63014DK  26135.37890453  .00000036  00000-0  22176-2 0  9990
2 18615  86.3103 109.1609 1807868 148.2659   4.5444  8.76041386 40258
Epoch: 2026-05-15T09:05Z
TLE epoch observation values (Epoch: 2026-05-15T09:05:37.351Z)
Latitude
25.05393°
Longitude
-82.07478°
Altitude
1,775.435 km
Speed
7.598 km/s
True Right ascension
19h 09m 46s
True Declination
24° 56' 19"
Sunlit
Object was in daylight at epoch
Visualization orbit readout
Latitude
Unknown
Longitude
Unknown
Altitude
Unknown
Speed
Unknown
Apparent Right ascension
Unknown
Apparent Declination
Unknown
Sunlit
N/A
Visualization observer readout
Local Sidereal Time
10:06:18
Azimuth
Unknown
Elevation
Unknown
Doppler factor
Unknown
Orbital elements
Apogee altitude
5,356.15 km
Perigee altitude
1,762.946 km
Semi-major axis
9,937.685 km
Eccentricity
0.18079
Inclination
86.3103°
RAAN
109.1609°
Arg. of periapsis
148.2659°
True anomaly
6.6553°
Mean anomaly
4.5444°
Eccentric anomaly
5.54536°
Mean motion
2.19086 °/min
Orbital period
164.32 mins
BSTAR
0.0022176
Loading maneuver chart data...
Computing Atmospheric mass density...

Documentation

Showing up to 5 results
|